Year,Month,Day,Hour,Minute,Value (Times are PST for temperature in C)
2013,07,25,00,00,16.20
2013,07,25,00,01,16.20
2013,07,25,00,02,16.10
2013,07,25,00,03,16.10
2013,07,25,00,04,16.10
2013,07,25,00,05,16.10
2013,07,25,00,06,16.00
2013,07,25,00,07,16.00
2013,07,25,00,08,15.90
2013,07,25,00,09,15.90
2013,07,25,00,10,15.90
2013,07,25,00,11,15.90
2013,07,25,00,12,15.80
2013,07,25,00,13,15.80
2013,07,25,00,14,15.80
2013,07,25,00,15,15.80
2013,07,25,00,16,15.80
2013,07,25,00,17,15.80
2013,07,25,00,18,15.70
2013,07,25,00,19,15.70
2013,07,25,00,20,15.70
2013,07,25,00,21,15.70
2013,07,25,00,22,15.70
2013,07,25,00,23,15.70
2013,07,25,00,24,15.70
2013,07,25,00,25,15.70
2013,07,25,00,26,15.70
2013,07,25,00,27,15.70
2013,07,25,00,28,15.70
2013,07,25,00,29,15.60
2013,07,25,00,30,15.60
2013,07,25,00,31,15.50
2013,07,25,00,32,15.50
2013,07,25,00,33,15.50
2013,07,25,00,34,15.40
2013,07,25,00,35,15.40
2013,07,25,00,36,15.40
2013,07,25,00,37,15.40
2013,07,25,00,38,15.50
2013,07,25,00,39,15.50
2013,07,25,00,40,15.50
2013,07,25,00,41,15.60
2013,07,25,00,42,15.60
2013,07,25,00,43,15.50
2013,07,25,00,44,15.50
2013,07,25,00,45,15.50
2013,07,25,00,46,15.50
2013,07,25,00,47,15.50
2013,07,25,00,48,15.50
2013,07,25,00,49,15.50
2013,07,25,00,50,15.40
2013,07,25,00,51,15.40
2013,07,25,00,52,15.40
2013,07,25,00,53,15.30
2013,07,25,00,54,15.30
2013,07,25,00,55,15.30
2013,07,25,00,56,15.30
2013,07,25,00,57,15.30
2013,07,25,00,58,15.30
2013,07,25,00,59,15.30
2013,07,25,01,00,15.20
2013,07,25,01,01,15.20
2013,07,25,01,02,15.20
2013,07,25,01,03,15.20
2013,07,25,01,04,15.20
2013,07,25,01,05,15.10
2013,07,25,01,06,15.10
2013,07,25,01,07,15.10
2013,07,25,01,08,15.00
2013,07,25,01,09,15.00
2013,07,25,01,10,15.00
2013,07,25,01,11,15.00
2013,07,25,01,12,14.90
2013,07,25,01,13,14.90
2013,07,25,01,14,14.90
2013,07,25,01,15,14.90
2013,07,25,01,16,14.90
2013,07,25,01,17,14.80
2013,07,25,01,18,14.80
2013,07,25,01,19,14.80
2013,07,25,01,20,14.80
2013,07,25,01,21,14.80
2013,07,25,01,22,14.80
2013,07,25,01,23,14.80
2013,07,25,01,24,14.80
2013,07,25,01,25,14.80
2013,07,25,01,26,14.80
2013,07,25,01,27,14.70
2013,07,25,01,28,14.70
2013,07,25,01,29,14.70
2013,07,25,01,30,14.70
2013,07,25,01,31,14.70
2013,07,25,01,32,14.70
2013,07,25,01,33,14.70
2013,07,25,01,34,14.60
2013,07,25,01,35,14.60
2013,07,25,01,36,14.60
2013,07,25,01,37,14.60
2013,07,25,01,38,14.60
2013,07,25,01,39,14.50
2013,07,25,01,40,14.50
2013,07,25,01,41,14.50
2013,07,25,01,42,14.50
2013,07,25,01,43,14.50
2013,07,25,01,44,14.50
2013,07,25,01,45,14.40
2013,07,25,01,46,14.40
2013,07,25,01,47,14.40
2013,07,25,01,48,14.40
2013,07,25,01,49,14.40
2013,07,25,01,50,14.40
2013,07,25,01,51,14.40
2013,07,25,01,52,14.40
2013,07,25,01,53,14.40
2013,07,25,01,54,14.40
2013,07,25,01,55,14.40
2013,07,25,01,56,14.40
2013,07,25,01,57,14.40
2013,07,25,01,58,14.40
2013,07,25,01,59,14.40
2013,07,25,02,00,14.40
2013,07,25,02,01,14.40
2013,07,25,02,02,14.40
2013,07,25,02,03,14.50
2013,07,25,02,04,14.50
2013,07,25,02,05,14.50
2013,07,25,02,06,14.60
2013,07,25,02,07,14.60
2013,07,25,02,08,14.60
2013,07,25,02,09,14.60
2013,07,25,02,10,14.70
2013,07,25,02,11,14.70
2013,07,25,02,12,14.70
2013,07,25,02,13,14.70
2013,07,25,02,14,14.70
2013,07,25,02,15,14.70
2013,07,25,02,16,14.70
2013,07,25,02,17,14.70
2013,07,25,02,18,14.60
2013,07,25,02,19,14.60
2013,07,25,02,20,14.60
2013,07,25,02,21,14.60
2013,07,25,02,22,14.60
2013,07,25,02,23,14.50
2013,07,25,02,24,14.50
2013,07,25,02,25,14.50
2013,07,25,02,26,14.50
2013,07,25,02,27,14.50
2013,07,25,02,28,14.50
2013,07,25,02,29,14.60
2013,07,25,02,30,14.60
2013,07,25,02,31,14.60
2013,07,25,02,32,14.60
2013,07,25,02,33,14.50
2013,07,25,02,34,14.50
2013,07,25,02,35,14.50
2013,07,25,02,36,14.50
2013,07,25,02,37,14.50
2013,07,25,02,38,14.50
2013,07,25,02,39,14.40
2013,07,25,02,40,14.40
2013,07,25,02,41,14.40
2013,07,25,02,42,14.40
2013,07,25,02,43,14.40
2013,07,25,02,44,14.30
2013,07,25,02,45,14.30
2013,07,25,02,46,14.30
2013,07,25,02,47,14.30
2013,07,25,02,48,14.30
2013,07,25,02,49,14.30
2013,07,25,02,50,14.30
2013,07,25,02,51,14.30
2013,07,25,02,52,14.30
2013,07,25,02,53,14.20
2013,07,25,02,54,14.20
2013,07,25,02,55,14.20
2013,07,25,02,56,14.20
2013,07,25,02,57,14.20
2013,07,25,02,58,14.20
2013,07,25,02,59,14.20
2013,07,25,03,00,14.20
2013,07,25,03,01,14.20
2013,07,25,03,02,14.20
2013,07,25,03,06,14.10
2013,07,25,03,07,14.10
2013,07,25,03,08,14.10
2013,07,25,03,09,14.10
2013,07,25,03,10,14.10
2013,07,25,03,11,14.10
2013,07,25,03,12,14.10
2013,07,25,03,13,14.00
2013,07,25,03,14,14.10
2013,07,25,03,15,14.00
2013,07,25,03,16,14.00
2013,07,25,03,17,14.00
2013,07,25,03,18,14.00
2013,07,25,03,19,14.00
2013,07,25,03,20,14.10
2013,07,25,03,21,14.10
2013,07,25,03,22,14.00
2013,07,25,03,23,14.00
2013,07,25,03,24,14.00
2013,07,25,03,25,14.00
2013,07,25,03,26,14.00
2013,07,25,03,27,14.00
2013,07,25,03,28,13.90
2013,07,25,03,29,13.90
2013,07,25,03,30,13.90
2013,07,25,03,31,13.90
2013,07,25,03,32,13.90
2013,07,25,03,33,13.90
2013,07,25,03,34,13.90
2013,07,25,03,35,13.90
2013,07,25,03,36,13.90
2013,07,25,03,37,13.90
2013,07,25,03,38,13.90
2013,07,25,03,39,13.80
2013,07,25,03,40,13.80
2013,07,25,03,41,13.80
2013,07,25,03,42,13.80
2013,07,25,03,43,13.80
2013,07,25,03,44,13.80
2013,07,25,03,45,13.80
2013,07,25,03,46,13.80
2013,07,25,03,47,13.70
2013,07,25,03,48,13.70
2013,07,25,03,49,13.70
2013,07,25,03,50,13.70
2013,07,25,03,51,13.70
2013,07,25,03,52,13.70
2013,07,25,03,53,13.70
2013,07,25,03,54,13.70
2013,07,25,03,55,13.70
2013,07,25,03,56,13.70
2013,07,25,03,57,13.70
2013,07,25,03,58,13.60
2013,07,25,03,59,13.60
2013,07,25,04,00,13.60
2013,07,25,04,01,13.60
2013,07,25,04,02,13.60
2013,07,25,04,03,13.60
2013,07,25,04,04,13.50
2013,07,25,04,05,13.50
2013,07,25,04,06,13.50
2013,07,25,04,07,13.50
2013,07,25,04,08,13.50
2013,07,25,04,09,13.40
2013,07,25,04,10,13.40
2013,07,25,04,11,13.40
2013,07,25,04,12,13.40
2013,07,25,04,13,13.40
2013,07,25,04,14,13.40
2013,07,25,04,15,13.30
2013,07,25,04,16,13.30
2013,07,25,04,17,13.30
2013,07,25,04,18,13.30
2013,07,25,04,19,13.30
2013,07,25,04,20,13.30
2013,07,25,04,21,13.30
2013,07,25,04,22,13.30
2013,07,25,04,23,13.30
2013,07,25,04,24,13.30
2013,07,25,04,25,13.20
2013,07,25,04,26,13.20
2013,07,25,04,27,13.20
2013,07,25,04,28,13.20
2013,07,25,04,29,13.20
2013,07,25,04,30,13.20
2013,07,25,04,31,13.20
2013,07,25,04,32,13.20
2013,07,25,04,33,13.20
2013,07,25,04,34,13.20
2013,07,25,04,35,13.20
2013,07,25,04,36,13.20
2013,07,25,04,37,13.10
2013,07,25,04,38,13.10
2013,07,25,04,39,13.10
2013,07,25,04,40,13.10
2013,07,25,04,41,13.10
2013,07,25,04,42,13.10
2013,07,25,04,43,13.10
2013,07,25,04,44,13.10
2013,07,25,04,45,13.10
2013,07,25,04,46,13.10
2013,07,25,04,47,13.10
2013,07,25,04,48,13.10
2013,07,25,04,49,13.10
2013,07,25,04,50,13.10
2013,07,25,04,51,13.10
2013,07,25,04,52,13.10
2013,07,25,04,53,13.10
2013,07,25,04,54,13.10
2013,07,25,04,55,13.10
2013,07,25,04,56,13.10
2013,07,25,04,57,13.10
2013,07,25,04,58,13.10
2013,07,25,04,59,13.10
2013,07,25,05,00,13.10
2013,07,25,05,01,13.00
2013,07,25,05,02,13.00
2013,07,25,05,03,13.00
2013,07,25,05,04,13.00
2013,07,25,05,05,12.90
2013,07,25,05,06,12.90
2013,07,25,05,07,12.90
2013,07,25,05,08,12.90
2013,07,25,05,09,12.90
2013,07,25,05,10,12.90
2013,07,25,05,11,12.90
2013,07,25,05,12,12.90
2013,07,25,05,13,12.80
2013,07,25,05,14,12.80
2013,07,25,05,15,12.80
2013,07,25,05,16,12.80
2013,07,25,05,17,12.80
2013,07,25,05,18,12.70
2013,07,25,05,19,12.70
2013,07,25,05,20,12.70
2013,07,25,05,21,12.70
2013,07,25,05,22,12.60
2013,07,25,05,23,12.60
2013,07,25,05,24,12.60
2013,07,25,05,25,12.60
2013,07,25,05,26,12.60
2013,07,25,05,27,12.60
2013,07,25,05,28,12.50
2013,07,25,05,29,12.50
2013,07,25,05,30,12.50
2013,07,25,05,31,12.50
2013,07,25,05,32,12.50
2013,07,25,05,33,12.50
2013,07,25,05,34,12.50
2013,07,25,05,35,12.50
2013,07,25,05,36,12.50
2013,07,25,05,37,12.50
2013,07,25,05,38,12.50
2013,07,25,05,39,12.50
2013,07,25,05,40,12.50
2013,07,25,05,41,12.60
2013,07,25,05,42,12.60
2013,07,25,05,43,12.60
2013,07,25,05,44,12.60
2013,07,25,05,45,12.60
2013,07,25,05,46,12.50
2013,07,25,05,47,12.50
2013,07,25,05,48,12.50
2013,07,25,05,49,12.50
2013,07,25,05,50,12.50
2013,07,25,05,51,12.50
2013,07,25,05,52,12.50
2013,07,25,05,53,12.50
2013,07,25,05,54,12.50
2013,07,25,05,55,12.50
2013,07,25,05,56,12.50
2013,07,25,05,57,12.50
2013,07,25,05,58,12.50
2013,07,25,05,59,12.50
2013,07,25,06,00,12.50
2013,07,25,06,01,12.50
2013,07,25,06,02,12.50
2013,07,25,06,03,12.50
2013,07,25,06,04,12.50
2013,07,25,06,05,12.50
2013,07,25,06,06,12.50
2013,07,25,06,07,12.50
2013,07,25,06,08,12.50
2013,07,25,06,09,12.50
2013,07,25,06,10,12.50
2013,07,25,06,11,12.50
2013,07,25,06,12,12.50
2013,07,25,06,13,12.50
2013,07,25,06,14,12.50
2013,07,25,06,15,12.50
2013,07,25,06,16,12.50
2013,07,25,06,17,12.60
2013,07,25,06,18,12.60
2013,07,25,06,19,12.60
2013,07,25,06,20,12.60
2013,07,25,06,21,12.60
2013,07,25,06,22,12.60
2013,07,25,06,23,12.60
2013,07,25,06,24,12.60
2013,07,25,06,25,12.60
2013,07,25,06,26,12.60
2013,07,25,06,27,12.60
2013,07,25,06,28,12.60
2013,07,25,06,29,12.60
2013,07,25,06,30,12.50
2013,07,25,06,31,12.50
2013,07,25,06,32,12.50
2013,07,25,06,33,12.50
2013,07,25,06,34,12.50
2013,07,25,06,35,12.50
2013,07,25,06,36,12.50
2013,07,25,06,37,12.40
2013,07,25,06,38,12.40
2013,07,25,06,39,12.40
2013,07,25,06,40,12.40
2013,07,25,06,41,12.40
2013,07,25,06,42,12.40
2013,07,25,06,43,12.40
2013,07,25,06,44,12.40
2013,07,25,06,45,12.40
2013,07,25,06,46,12.40
2013,07,25,06,47,12.40
2013,07,25,06,48,12.40
2013,07,25,06,49,12.40
2013,07,25,06,50,12.40
2013,07,25,06,51,12.40
2013,07,25,06,52,12.40
2013,07,25,06,53,12.40
2013,07,25,06,54,12.40
2013,07,25,06,55,12.50
2013,07,25,06,56,12.50
2013,07,25,06,57,12.60
2013,07,25,06,58,12.60
2013,07,25,06,59,12.60
2013,07,25,07,00,12.70
2013,07,25,07,01,12.80
2013,07,25,07,02,12.90
2013,07,25,07,03,12.90
2013,07,25,07,04,13.00
2013,07,25,07,05,13.10
2013,07,25,07,06,13.20
2013,07,25,07,07,13.30
2013,07,25,07,08,13.40
2013,07,25,07,09,13.40
2013,07,25,07,10,13.50
2013,07,25,07,11,13.60
2013,07,25,07,12,13.60
2013,07,25,07,13,13.70
2013,07,25,07,14,13.80
2013,07,25,07,15,13.80
2013,07,25,07,16,13.90
2013,07,25,07,17,14.00
2013,07,25,07,18,14.10
2013,07,25,07,19,14.10
2013,07,25,07,20,14.20
2013,07,25,07,21,14.20
2013,07,25,07,22,14.30
2013,07,25,07,23,14.30
2013,07,25,07,24,14.40
2013,07,25,07,25,14.40
2013,07,25,07,26,14.40
2013,07,25,07,27,14.50
2013,07,25,07,28,14.50
2013,07,25,07,29,14.50
2013,07,25,07,30,14.60
2013,07,25,07,31,14.70
2013,07,25,07,32,14.70
2013,07,25,07,33,14.80
2013,07,25,07,34,14.90
2013,07,25,07,35,14.90
2013,07,25,07,36,15.00
2013,07,25,07,37,15.00
2013,07,25,07,38,15.10
2013,07,25,07,39,15.10
2013,07,25,07,40,15.20
2013,07,25,07,41,15.20
2013,07,25,07,42,15.20
2013,07,25,07,43,15.20
2013,07,25,07,44,15.20
2013,07,25,07,45,15.20
2013,07,25,07,46,15.30
2013,07,25,07,47,15.30
2013,07,25,07,48,15.30
2013,07,25,07,49,15.30
2013,07,25,07,50,15.30
2013,07,25,07,51,15.30
2013,07,25,07,52,15.40
2013,07,25,07,53,15.40
2013,07,25,07,54,15.40
2013,07,25,07,55,15.50
2013,07,25,07,56,15.60
2013,07,25,07,57,15.60
2013,07,25,07,58,15.70
2013,07,25,07,59,15.70
2013,07,25,08,00,15.70
2013,07,25,08,01,15.70
2013,07,25,08,02,15.70
2013,07,25,08,03,15.80
2013,07,25,08,04,15.80
2013,07,25,08,05,15.80
2013,07,25,08,06,15.80
2013,07,25,08,07,15.80
2013,07,25,08,08,15.80
2013,07,25,08,09,15.80
2013,07,25,08,10,15.80
2013,07,25,08,11,15.80
2013,07,25,08,12,15.80
2013,07,25,08,13,15.90
2013,07,25,08,14,16.00
2013,07,25,08,15,16.10
2013,07,25,08,16,16.10
2013,07,25,08,17,16.20
2013,07,25,08,18,16.20
2013,07,25,08,19,16.30
2013,07,25,08,20,16.40
2013,07,25,08,21,16.40
2013,07,25,08,22,16.40
2013,07,25,08,23,16.50
2013,07,25,08,24,16.50
2013,07,25,08,25,16.60
2013,07,25,08,26,16.60
2013,07,25,08,27,16.70
2013,07,25,08,28,16.70
2013,07,25,08,29,16.80
2013,07,25,08,30,16.80
2013,07,25,08,31,16.80
2013,07,25,08,32,16.80
2013,07,25,08,33,16.80
2013,07,25,08,34,16.80
2013,07,25,08,35,16.90
2013,07,25,08,36,16.90
2013,07,25,08,37,16.90
2013,07,25,08,38,17.00
2013,07,25,08,39,17.10
2013,07,25,08,40,17.20
2013,07,25,08,41,17.20
2013,07,25,08,42,17.30
2013,07,25,08,43,17.40
2013,07,25,08,44,17.50
2013,07,25,08,45,17.60
2013,07,25,08,46,17.70
2013,07,25,08,47,17.80
2013,07,25,08,48,17.90
2013,07,25,08,49,18.00
2013,07,25,08,50,18.10
2013,07,25,08,51,18.20
2013,07,25,08,52,18.20
2013,07,25,08,53,18.20
2013,07,25,08,54,18.20
2013,07,25,08,55,18.20
2013,07,25,08,56,18.20
2013,07,25,08,57,18.10
2013,07,25,08,58,18.10
2013,07,25,08,59,18.00
2013,07,25,09,00,18.00
2013,07,25,09,01,17.90
2013,07,25,09,02,17.90
2013,07,25,09,03,17.90
2013,07,25,09,04,17.90
2013,07,25,09,05,17.90
2013,07,25,09,06,17.90
2013,07,25,09,07,17.90
2013,07,25,09,08,18.00
2013,07,25,09,09,18.00
2013,07,25,09,10,18.10
2013,07,25,09,11,18.00
2013,07,25,09,12,18.00
2013,07,25,09,13,18.00
2013,07,25,09,14,18.00
2013,07,25,09,15,18.00
2013,07,25,09,16,18.00
2013,07,25,09,17,18.10
2013,07,25,09,18,18.10
2013,07,25,09,19,18.20
2013,07,25,09,20,18.30
2013,07,25,09,21,18.40
2013,07,25,09,22,18.50
2013,07,25,09,23,18.60
2013,07,25,09,24,18.60
2013,07,25,09,25,18.70
2013,07,25,09,26,18.70
2013,07,25,09,27,18.70
2013,07,25,09,28,18.80
2013,07,25,09,29,18.90
2013,07,25,09,30,18.90
2013,07,25,09,31,18.90
2013,07,25,09,32,18.80
2013,07,25,09,33,18.80
2013,07,25,09,34,18.80
2013,07,25,09,35,18.80
2013,07,25,09,36,18.80
2013,07,25,09,37,18.80
2013,07,25,09,38,18.80
2013,07,25,09,39,18.80
2013,07,25,09,40,18.80
2013,07,25,09,41,18.90
2013,07,25,09,42,18.90
2013,07,25,09,43,19.00
2013,07,25,09,44,19.00
2013,07,25,09,45,19.10
2013,07,25,09,46,19.20
2013,07,25,09,47,19.20
2013,07,25,09,48,19.30
2013,07,25,09,49,19.40
2013,07,25,09,50,19.50
2013,07,25,09,51,19.50
2013,07,25,09,52,19.60
2013,07,25,09,53,19.70
2013,07,25,09,54,19.70
2013,07,25,09,55,19.80
2013,07,25,09,56,19.90
2013,07,25,09,57,19.90
2013,07,25,09,58,20.00
2013,07,25,09,59,20.10
2013,07,25,10,00,20.20
2013,07,25,10,01,20.20
2013,07,25,10,02,20.20
2013,07,25,10,03,20.20
2013,07,25,10,04,20.10
2013,07,25,10,05,20.00
2013,07,25,10,06,20.00
2013,07,25,10,07,20.00
2013,07,25,10,08,20.10
2013,07,25,10,09,20.10
2013,07,25,10,10,20.20
2013,07,25,10,11,20.20
2013,07,25,10,12,20.20
2013,07,25,10,13,20.10
2013,07,25,10,14,20.10
2013,07,25,10,15,20.10
2013,07,25,10,16,20.10
2013,07,25,10,17,20.20
2013,07,25,10,18,20.30
2013,07,25,10,19,20.40
2013,07,25,10,20,20.50
2013,07,25,10,21,20.60
2013,07,25,10,22,20.60
2013,07,25,10,23,20.70
2013,07,25,10,24,20.70
2013,07,25,10,25,20.70
2013,07,25,10,26,20.80
2013,07,25,10,27,20.90
2013,07,25,10,28,21.00
2013,07,25,10,29,21.10
2013,07,25,10,30,21.10
2013,07,25,10,31,21.10
2013,07,25,10,32,21.10
2013,07,25,10,33,21.10
2013,07,25,10,34,21.10
2013,07,25,10,35,21.10
2013,07,25,10,36,21.10
2013,07,25,10,37,21.10
2013,07,25,10,38,21.10
2013,07,25,10,39,21.20
2013,07,25,10,40,21.30
2013,07,25,10,41,21.40
2013,07,25,10,42,21.40
2013,07,25,10,43,21.40
2013,07,25,10,44,21.40
2013,07,25,10,45,21.40
2013,07,25,10,46,21.50
2013,07,25,10,47,21.60
2013,07,25,10,48,21.70
2013,07,25,10,49,21.70
2013,07,25,10,50,21.70
2013,07,25,10,51,21.80
2013,07,25,10,52,21.90
2013,07,25,10,53,21.90
2013,07,25,10,54,21.90
2013,07,25,10,55,21.90
2013,07,25,10,56,22.00
2013,07,25,10,57,22.00
2013,07,25,10,58,22.10
2013,07,25,10,59,22.10
2013,07,25,11,00,22.10
2013,07,25,11,01,22.10
2013,07,25,11,02,22.10
2013,07,25,11,03,22.20
2013,07,25,11,04,22.20
2013,07,25,11,05,22.30
2013,07,25,11,06,22.30
2013,07,25,11,07,22.30
2013,07,25,11,08,22.30
2013,07,25,11,09,22.30
2013,07,25,11,10,22.40
2013,07,25,11,11,22.40
2013,07,25,11,12,22.40
2013,07,25,11,13,22.40
2013,07,25,11,14,22.50
2013,07,25,11,15,22.50
2013,07,25,11,16,22.60
2013,07,25,11,17,22.60
2013,07,25,11,18,22.60
2013,07,25,11,19,22.60
2013,07,25,11,20,22.60
2013,07,25,11,21,22.70
2013,07,25,11,22,22.70
2013,07,25,11,23,22.80
2013,07,25,11,24,22.80
2013,07,25,11,25,22.90
2013,07,25,11,26,23.00
2013,07,25,11,27,23.10
2013,07,25,11,28,23.20
2013,07,25,11,29,23.30
2013,07,25,11,30,23.40
2013,07,25,11,31,23.50
2013,07,25,11,32,23.60
2013,07,25,11,33,23.70
2013,07,25,11,34,23.70
2013,07,25,11,35,23.80
2013,07,25,11,36,23.80
2013,07,25,11,37,23.80
2013,07,25,11,38,23.80
2013,07,25,11,39,23.80
2013,07,25,11,40,23.90
2013,07,25,11,41,24.00
2013,07,25,11,42,24.00
2013,07,25,11,43,24.10
2013,07,25,11,44,24.20
2013,07,25,11,45,24.30
2013,07,25,11,46,24.30
2013,07,25,11,47,24.20
2013,07,25,11,48,24.20
2013,07,25,11,49,24.20
2013,07,25,11,50,24.20
2013,07,25,11,51,24.30
2013,07,25,11,52,24.30
2013,07,25,11,53,24.30
2013,07,25,11,54,24.30
2013,07,25,11,55,24.40
2013,07,25,11,56,24.40
2013,07,25,11,57,24.50
2013,07,25,11,58,24.70
2013,07,25,11,59,24.80
2013,07,25,12,00,24.90
2013,07,25,12,01,25.00
2013,07,25,12,02,25.00
2013,07,25,12,03,25.10
2013,07,25,12,04,25.10
2013,07,25,12,05,25.10
2013,07,25,12,06,25.10
2013,07,25,12,07,25.10
2013,07,25,12,08,25.20
2013,07,25,12,09,25.30
2013,07,25,12,10,25.30
2013,07,25,12,11,25.40
2013,07,25,12,12,25.40
2013,07,25,12,13,25.40
2013,07,25,12,14,25.40
2013,07,25,12,15,25.40
2013,07,25,12,16,25.40
2013,07,25,12,17,25.40
2013,07,25,12,18,25.30
2013,07,25,12,19,25.30
2013,07,25,12,20,25.40
2013,07,25,12,21,25.40
2013,07,25,12,22,25.50
2013,07,25,12,23,25.60
2013,07,25,12,24,25.70
2013,07,25,12,25,25.80
2013,07,25,12,26,25.70
2013,07,25,12,27,25.60
2013,07,25,12,28,25.50
2013,07,25,12,29,25.50
2013,07,25,12,30,25.50
2013,07,25,12,31,25.60
2013,07,25,12,32,25.60
2013,07,25,12,33,25.70
2013,07,25,12,34,25.80
2013,07,25,12,35,25.80
2013,07,25,12,36,25.80
2013,07,25,12,37,25.90
2013,07,25,12,38,26.00
2013,07,25,12,39,26.00
2013,07,25,12,40,26.10
2013,07,25,12,41,26.20
2013,07,25,12,42,26.20
2013,07,25,12,43,26.20
2013,07,25,12,44,26.20
2013,07,25,12,45,26.10
2013,07,25,12,46,26.10
2013,07,25,12,47,26.10
2013,07,25,12,48,26.00
2013,07,25,12,49,26.00
2013,07,25,12,50,26.00
2013,07,25,12,51,26.10
2013,07,25,12,52,26.10
2013,07,25,12,53,26.00
2013,07,25,12,54,26.00
2013,07,25,12,55,26.00
2013,07,25,12,56,26.00
2013,07,25,12,57,26.00
2013,07,25,12,58,26.10
2013,07,25,12,59,26.20
2013,07,25,13,00,26.40
2013,07,25,13,01,26.40
2013,07,25,13,02,26.60
2013,07,25,13,03,26.70
2013,07,25,13,04,26.80
2013,07,25,13,05,27.00
2013,07,25,13,06,27.00
2013,07,25,13,07,27.10
2013,07,25,13,08,27.20
2013,07,25,13,09,27.30
2013,07,25,13,10,27.30
2013,07,25,13,11,27.40
2013,07,25,13,12,27.30
2013,07,25,13,13,27.30
2013,07,25,13,14,27.30
2013,07,25,13,15,27.30
2013,07,25,13,16,27.30
2013,07,25,13,17,27.30
2013,07,25,13,18,27.30
2013,07,25,13,19,27.30
2013,07,25,13,20,27.40
2013,07,25,13,21,27.50
2013,07,25,13,22,27.60
2013,07,25,13,23,27.80
2013,07,25,13,24,27.90
2013,07,25,13,25,28.10
2013,07,25,13,26,28.30
2013,07,25,13,27,28.40
2013,07,25,13,28,28.50
2013,07,25,13,29,28.50
2013,07,25,13,30,28.50
2013,07,25,13,31,28.60
2013,07,25,13,32,28.50
2013,07,25,13,33,28.50
2013,07,25,13,34,28.40
2013,07,25,13,35,28.40
2013,07,25,13,36,28.30
2013,07,25,13,37,28.30
2013,07,25,13,38,28.20
2013,07,25,13,39,28.20
2013,07,25,13,40,28.30
2013,07,25,13,41,28.30
2013,07,25,13,42,28.40
2013,07,25,13,43,28.40
2013,07,25,13,44,28.50
2013,07,25,13,45,28.60
2013,07,25,13,46,28.70
2013,07,25,13,47,28.70
2013,07,25,13,48,28.80
2013,07,25,13,49,28.80
2013,07,25,13,50,28.90
2013,07,25,13,51,29.00
2013,07,25,13,52,29.10
2013,07,25,13,53,29.10
2013,07,25,13,54,29.20
2013,07,25,13,55,29.30
2013,07,25,13,56,29.50
2013,07,25,13,57,29.50
2013,07,25,13,58,29.60
2013,07,25,13,59,29.80
2013,07,25,14,00,29.90
2013,07,25,14,01,29.90
2013,07,25,14,02,29.90
2013,07,25,14,03,29.80
2013,07,25,14,04,29.60
2013,07,25,14,05,29.60
2013,07,25,14,06,29.60
2013,07,25,14,07,29.60
2013,07,25,14,08,29.60
2013,07,25,14,09,29.60
2013,07,25,14,10,29.70
2013,07,25,14,11,29.80
2013,07,25,14,12,29.80
2013,07,25,14,13,29.90
2013,07,25,14,14,29.90
2013,07,25,14,15,29.90
2013,07,25,14,16,29.90
2013,07,25,14,17,29.90
2013,07,25,14,18,30.00
2013,07,25,14,19,30.10
2013,07,25,14,20,30.20
2013,07,25,14,21,30.30
2013,07,25,14,22,30.30
2013,07,25,14,23,30.40
2013,07,25,14,24,30.40
2013,07,25,14,25,30.30
2013,07,25,14,26,30.30
2013,07,25,14,27,30.10
2013,07,25,14,28,30.10
2013,07,25,14,29,30.00
2013,07,25,14,30,29.90
2013,07,25,14,31,29.90
2013,07,25,14,32,29.80
2013,07,25,14,33,29.80
2013,07,25,14,34,29.90
2013,07,25,14,35,30.00
2013,07,25,14,36,30.10
2013,07,25,14,37,30.00
2013,07,25,14,38,30.00
2013,07,25,14,39,30.10
2013,07,25,14,40,30.10
2013,07,25,14,41,30.10
2013,07,25,14,42,30.10
2013,07,25,14,43,30.10
2013,07,25,14,44,30.20
2013,07,25,14,45,30.30
2013,07,25,14,46,30.50
2013,07,25,14,47,30.60
2013,07,25,14,48,30.70
2013,07,25,14,49,30.70
2013,07,25,14,50,30.70
2013,07,25,14,51,30.60
2013,07,25,14,52,30.60
2013,07,25,14,53,30.60
2013,07,25,14,54,30.60
2013,07,25,14,55,30.60
2013,07,25,14,56,30.60
2013,07,25,14,57,30.50
2013,07,25,14,58,30.50
2013,07,25,14,59,30.40
2013,07,25,15,00,30.30
2013,07,25,15,01,30.30
2013,07,25,15,02,30.30
2013,07,25,15,03,30.40
2013,07,25,15,04,30.50
2013,07,25,15,05,30.60
2013,07,25,15,06,30.70
2013,07,25,15,07,30.70
2013,07,25,15,08,30.70
2013,07,25,15,09,30.60
2013,07,25,15,10,30.60
2013,07,25,15,11,30.70
2013,07,25,15,12,30.60
2013,07,25,15,13,30.60
2013,07,25,15,14,30.70
2013,07,25,15,15,30.70
2013,07,25,15,16,30.60
2013,07,25,15,17,30.60
2013,07,25,15,18,30.60
2013,07,25,15,19,30.70
2013,07,25,15,20,30.70
2013,07,25,15,21,30.80
2013,07,25,15,22,30.70
2013,07,25,15,23,30.60
2013,07,25,15,24,30.60
2013,07,25,15,25,30.60
2013,07,25,15,26,30.70
2013,07,25,15,27,30.70
2013,07,25,15,28,30.70
2013,07,25,15,29,30.70
2013,07,25,15,30,30.80
2013,07,25,15,31,30.90
2013,07,25,15,32,31.00
2013,07,25,15,33,31.10
2013,07,25,15,34,31.00
2013,07,25,15,35,30.90
2013,07,25,15,36,30.90
2013,07,25,15,37,30.90
2013,07,25,15,38,30.80
2013,07,25,15,39,30.80
2013,07,25,15,40,30.70
2013,07,25,15,41,30.60
2013,07,25,15,42,30.50
2013,07,25,15,43,30.40
2013,07,25,15,44,30.30
2013,07,25,15,45,30.10
2013,07,25,15,46,30.10
2013,07,25,15,47,30.10
2013,07,25,15,48,30.10
2013,07,25,15,49,30.20
2013,07,25,15,50,30.30
2013,07,25,15,51,30.30
2013,07,25,15,52,30.30
2013,07,25,15,53,30.30
2013,07,25,15,54,30.30
2013,07,25,15,55,30.30
2013,07,25,15,56,30.40
2013,07,25,15,57,30.50
2013,07,25,15,58,30.60
2013,07,25,15,59,30.50
2013,07,25,16,00,30.50
2013,07,25,16,01,30.40
2013,07,25,16,02,30.30
2013,07,25,16,03,30.40
2013,07,25,16,04,30.40
2013,07,25,16,05,30.40
2013,07,25,16,06,30.50
2013,07,25,16,07,30.60
2013,07,25,16,08,30.60
2013,07,25,16,09,30.70
2013,07,25,16,10,30.80
2013,07,25,16,11,30.90
2013,07,25,16,12,30.90
2013,07,25,16,13,31.10
2013,07,25,16,14,31.10
2013,07,25,16,15,31.20
2013,07,25,16,16,31.10
2013,07,25,16,17,31.10
2013,07,25,16,18,31.10
2013,07,25,16,19,31.00
2013,07,25,16,20,31.00
2013,07,25,16,21,30.90
2013,07,25,16,22,30.90
2013,07,25,16,23,30.80
2013,07,25,16,24,30.80
2013,07,25,16,25,30.80
2013,07,25,16,26,30.80
2013,07,25,16,27,30.90
2013,07,25,16,28,30.90
2013,07,25,16,29,30.80
2013,07,25,16,30,30.90
2013,07,25,16,31,30.90
2013,07,25,16,32,31.00
2013,07,25,16,33,31.20
2013,07,25,16,34,31.30
2013,07,25,16,35,31.30
2013,07,25,16,36,31.30
2013,07,25,16,37,31.30
2013,07,25,16,38,31.30
2013,07,25,16,39,31.20
2013,07,25,16,40,31.20
2013,07,25,16,41,31.20
2013,07,25,16,42,31.20
2013,07,25,16,43,31.20
2013,07,25,16,44,31.10
2013,07,25,16,45,31.10
2013,07,25,16,46,31.10
2013,07,25,16,47,31.00
2013,07,25,16,48,31.00
2013,07,25,16,49,30.90
2013,07,25,16,50,30.80
2013,07,25,16,51,30.70
2013,07,25,16,52,30.70
2013,07,25,16,53,30.80
2013,07,25,16,54,30.80
2013,07,25,16,55,30.90
2013,07,25,16,56,30.90
2013,07,25,16,57,30.80
2013,07,25,16,58,30.90
2013,07,25,16,59,30.90
2013,07,25,17,00,30.90
2013,07,25,17,01,31.00
2013,07,25,17,02,31.10
2013,07,25,17,03,31.10
2013,07,25,17,04,31.10
2013,07,25,17,05,31.20
2013,07,25,17,06,31.30
2013,07,25,17,07,31.40
2013,07,25,17,08,31.50
2013,07,25,17,09,31.50
2013,07,25,17,10,31.40
2013,07,25,17,11,31.40
2013,07,25,17,12,31.40
2013,07,25,17,13,31.40
2013,07,25,17,14,31.40
2013,07,25,17,15,31.50
2013,07,25,17,16,31.50
2013,07,25,17,17,31.50
2013,07,25,17,18,31.60
2013,07,25,17,19,31.70
2013,07,25,17,20,31.70
2013,07,25,17,21,31.60
2013,07,25,17,22,31.60